FW7227 Weather Reports


time (UTC)temp
C
wind
direction
speed
KPH
gust
KPH
rain 1hr
cm
rain 24hr
cm
rain mn
cm
humidity
%
barometer
mb
20260904165057 16 265 6.4 20.9 0.56 1.35 1.30 94 1008.8
20260904164606 16 271 11.3 25.7 0.56 1.32 1.27 94 1008.8
20260904164057 16 273 9.7 25.7 0.56 1.30 1.24 94 1009.0
20260904163557 16 253 12.9 25.7 0.56 1.30 1.22 94 1009.0
20260904163109 16 290 12.9 29.0 0.58 1.27 1.22 94 1009.0
20260904162557 16 258 12.9 29.0 0.61 1.22 1.17 94 1008.9
20260904162057 16 273 14.5 29.0 0.61 1.22 1.14 93 1008.6
20260904161602 16 278 16.1 30.6 0.56 1.14 1.09 93 1008.7
20260904161056 16 249 17.7 35.4 0.46 1.04 0.99 93 1008.8
20260904160559 16 255 16.1 35.4 0.36 0.94 0.89 92 1009.0
20260904160106 16 256 16.1 32.2 0.28 0.89 0.84 92 1008.8
20260904155556 16 244 19.3 38.6 0.25 0.84 0.76 92 1008.7
20260904155058 16 273 22.5 38.6 0.20 0.79 0.74 92 1008.7
20260904154607 16 292 16.1 32.2 0.18 0.76 0.71 92 1008.5
20260904154058 16 284 16.1 32.2 0.18 0.74 0.69 92 1008.6
20260904153558 16 291 14.5 30.6 0.18 0.74 0.66 91 1008.8
20260904153106 16 250 14.5 27.4 0.18 0.66 0.61 90 1009.0
20260904152557 16 276 12.9 27.4 0.15 0.61 0.56 90 1008.9
20260904152059 16 281 16.1 30.6 0.15 0.58 0.53 90 1008.8
20260904151603 16 284 17.7 30.6 0.15 0.58 0.53 90 1008.7
20260904151056 16 267 14.5 27.4 0.15 0.58 0.53 90 1009.0
20260904150556 16 258 12.9 32.2 0.15 0.58 0.53 91 1009.0
20260904150105 16 279 12.9 38.6 0.15 0.58 0.53 90 1008.9
20260904145555 16 271 22.5 45.1 0.13 0.56 0.51 89 1009.3
20260904145057 16 280 22.5 45.1 0.13 0.56 0.51 89 1009.5
20260904144603 17 261 20.9 40.2 0.13 0.56 0.51 89 1009.6
20260904144101 17 281 11.3 40.2 0.10 0.56 0.48 90 1009.6
20260904143557 17 273 14.5 40.2 0.10 0.53 0.46 89 1009.8
20260904143100 17 270 20.9 40.2 0.08 0.48 0.43 89 1009.8
20260904142557 17 286 17.7 40.2 0.36 0.46 0.38 88 1009.5
20260904142057 17 315 14.5 32.2 0.36 0.43 0.36 89 1009.0
20260904141625 17 278 14.5 30.6 0.36 0.43 0.36 89 1009.1
20260904141056 17 248 12.9 30.6 0.36 0.43 0.36 89 1009.1
20260904140556 17 267 16.1 30.6 0.36 0.43 0.36 89 1008.9
20260904140106 17 234 14.5 24.1 0.36 0.43 0.36 89 1008.8
20260904135557 17 260 14.5 25.7 0.36 0.43 0.36 89 1008.5
20260904135058 17 238 17.7 32.2 0.36 0.43 0.36 89 1008.3
20260904134605 17 254 16.1 33.8 0.36 0.43 0.36 89 1008.4
20260904134057 18 269 17.7 38.6 0.36 0.43 0.36 86 1008.3
20260904133557 18 275 19.3 62.8 0.33 0.41 0.36 83 1008.3
20260904133100 21 306 29.0 62.8 0.30 0.38 0.33 72 1008.2
20260904132600 23 263 17.7 43.5 0.00 0.08 0.00 67 1007.4
20260904132057 24 275 27.4 49.9 0.00 0.08 0.00 66 1006.7
20260904131636 24 263 22.5 59.5 0.00 0.08 0.00 65 1006.6
20260904131057 25 299 27.4 61.2 0.00 0.08 0.00 64 1006.6
20260904130556 24 257 33.8 61.2 0.00 0.08 0.00 64 1006.7
20260904130105 24 248 27.4 51.5 0.00 0.08 0.00 64 1006.6
20260904125557 25 253 30.6 53.1 0.00 0.08 0.00 64 1006.6
20260904125057 25 252 19.3 54.7 0.00 0.08 0.00 64 1006.7
20260904124605 25 233 29.0 54.7 0.00 0.08 0.00 64 1006.7
20260904124057 24 247 27.4 53.1 0.00 0.08 0.00 65 1006.7
20260904123558 24 267 24.1 53.1 0.00 0.08 0.00 66 1006.9
20260904123110 24 276 27.4 51.5 0.00 0.08 0.00 66 1006.7
20260904122557 24 248 20.9 41.8 0.00 0.08 0.00 67 1007.0
20260904122101 24 290 25.7 45.1 0.00 0.08 0.00 66 1006.9
20260904121607 24 238 25.7 51.5 0.00 0.08 0.00 67 1007.0
20260904121057 23 268 19.3 51.5 0.00 0.08 0.00 69 1007.1
20260904120600 23 239 24.1 51.5 0.00 0.08 0.00 69 1007.2
20260904120114 23 246 24.1 48.3 0.00 0.08 0.00 69 1007.2
20260904115556 23 254 22.5 41.8 0.00 0.08 0.00 70 1007.2
20260904115058 23 273 22.5 43.5 0.00 0.08 0.00 70 1007.4
20260904114603 23 269 22.5 43.5 0.00 0.08 0.00 71 1007.5
20260904114057 22 235 22.5 37.0 0.00 0.08 0.00 71 1007.5
20260904113556 22 259 24.1 41.8 0.00 0.08 0.00 71 1007.7
20260904113110 22 257 20.9 41.8 0.00 0.08 0.00 72 1007.6
20260904112556 22 256 24.1 41.8 0.00 0.08 0.00 71 1007.6
20260904112057 22 257 17.7 43.5 0.00 0.08 0.00 71 1007.7
20260904111601 22 273 24.1 43.5 0.00 0.08 0.00 71 1007.8
20260904111058 22 263 19.3 38.6 0.00 0.08 0.00 71 1007.8
20260904110558 22 251 22.5 41.8 0.00 0.08 0.00 71 1007.9
20260904110116 22 221 20.9 41.8 0.00 0.08 0.00 71 1007.9
20260904105556 22 264 20.9 40.2 0.00 0.08 0.00 71 1007.8
20260904105056 22 244 19.3 48.3 0.00 0.08 0.00 71 1008.1
20260904104612 22 235 20.9 48.3 0.00 0.08 0.00 72 1008.0
20260904104058 22 241 19.3 45.1 0.00 0.08 0.00 72 1008.0
20260904103558 22 247 22.5 45.1 0.00 0.08 0.00 71 1008.0
20260904103108 22 280 19.3 35.4 0.00 0.08 0.00 72 1008.1
20260904102557 22 274 20.9 46.7 0.00 0.08 0.00 72 1008.1
20260904102057 22 238 22.5 46.7 0.00 0.08 0.00 72 1008.1
20260904101604 22 238 20.9 51.5 0.00 0.08 0.00 72 1008.2
20260904101056 22 223 22.5 51.5 0.00 0.08 0.00 72 1008.3
20260904100556 22 244 24.1 51.5 0.00 0.08 0.00 73 1008.1
20260904100111 22 261 22.5 40.2 0.00 0.08 0.00 73 1008.2
20260904095557 22 238 17.7 32.2 0.00 0.08 0.00 74 1008.4
20260904095056 22 275 16.1 33.8 0.00 0.08 0.00 74 1008.5
20260904094606 22 245 14.5 35.4 0.00 0.08 0.00 73 1008.7
20260904094057 22 262 16.1 40.2 0.00 0.08 0.00 74 1008.8
20260904093557 22 251 17.7 41.8 0.00 0.08 0.00 74 1008.9
20260904093109 22 227 22.5 41.8 0.00 0.08 0.00 74 1008.9
20260904092556 21 240 19.3 37.0 0.00 0.08 0.00 74 1009.0
20260904092100 21 255 12.9 30.6 0.00 0.08 0.00 74 1009.0
20260904091605 21 225 17.7 32.2 0.00 0.08 0.00 75 1008.9
20260904091056 21 267 14.5 46.7 0.00 0.08 0.00 75 1009.0
20260904090556 21 247 20.9 46.7 0.00 0.08 0.00 75 1009.1
20260904090106 21 213 14.5 30.6 0.00 0.08 0.00 75 1009.1
20260904085556 21 223 12.9 35.4 0.00 0.08 0.00 75 1009.2
20260904085056 21 250 16.1 37.0 0.00 0.08 0.00 75 1009.3
20260904084604 21 228 20.9 37.0 0.00 0.08 0.00 74 1009.4
20260904084055 21 230 17.7 27.4 0.00 0.08 0.00 74 1009.3
20260904083557 22 259 17.7 30.6 0.00 0.08 0.00 74 1009.5
20260904083102 22 267 12.9 30.6 0.00 0.08 0.00 75 1009.4
20260904082556 21 237 17.7 30.6 0.00 0.08 0.00 75 1009.4
20260904082057 21 245 16.1 30.6 0.00 0.08 0.00 76 1009.4
20260904081607 21 253 17.7 38.6 0.00 0.08 0.00 77 1009.6
20260904081056 21 237 19.3 38.6 0.00 0.08 0.00 78 1009.8
20260904080556 21 225 17.7 33.8 0.00 0.08 0.00 78 1009.9
20260904080112 21 239 16.1 29.0 0.00 0.08 0.00 79 1009.9
20260904075557 21 234 12.9 29.0 0.00 0.08 0.00 79 1010.0
20260904075057 21 254 14.5 32.2 0.00 0.08 0.00 79 1009.9
20260904074636 21 259 12.9 32.2 0.00 0.08 0.00 79 1009.9
20260904074058 21 277 12.9 32.2 0.00 0.08 0.00 79 1009.9
20260904073602 21 229 16.1 32.2 0.00 0.08 0.00 79 1009.8
20260904073101 21 201 14.5 29.0 0.00 0.08 0.00 80 1009.8
20260904072558 20 216 14.5 27.4 0.00 0.08 0.00 81 1009.8
20260904072058 20 247 17.7 27.4 0.00 0.08 0.00 81 1009.9
20260904071605 20 227 12.9 25.7 0.00 0.08 0.00 83 1010.0
20260904071057 20 217 12.9 25.7 0.00 0.08 0.00 83 1010.0
20260904070602 20 247 11.3 25.7 0.00 0.08 0.00 84 1010.2
20260904070108 20 249 12.9 24.1 0.00 0.08 0.00 84 1010.3
20260904065557 20 248 9.7 24.1 0.00 0.08 0.00 85 1010.3
20260904065058 20 235 9.7 29.0 0.00 0.08 0.00 85 1010.4
20260904064604 20 242 9.7 35.4 0.00 0.08 0.00 85 1010.3
20260904064100 19 261 19.3 35.4 0.00 0.08 0.00 84 1010.5
20260904063600 20 261 16.1 29.0 0.00 0.08 0.00 84 1010.6
20260904063111 19 212 14.5 27.4 0.00 0.08 0.00 84 1010.7
20260904062600 19 234 12.9 22.5 0.00 0.08 0.00 85 1010.5
20260904062057 19 195 9.7 20.9 0.00 0.08 0.00 85 1010.6
20260904061606 19 214 8.0 24.1 0.00 0.08 0.00 86 1010.7
20260904061057 18 231 11.3 24.1 0.00 0.08 0.00 87 1010.7
20260904060558 18 236 8.0 22.5 0.00 0.08 0.00 87 1010.9
20260904060113 18 213 4.8 22.5 0.00 0.08 0.00 87 1010.9
20260904055557 18 224 8.0 25.7 0.00 0.08 0.00 87 1011.0
20260904055057 18 234 11.3 25.7 0.00 0.08 0.00 88 1011.1
20260904054608 18 241 12.9 22.5 0.00 0.08 0.00 88 1011.1
20260904054058 18 229 9.7 20.9 0.00 0.05 0.00 89 1011.4
20260904053558 18 217 9.7 20.9 0.00 0.05 0.00 89 1011.4
20260904053101 17 201 11.3 20.9 0.00 0.05 0.00 89 1011.5
20260904052558 17 238 9.7 17.7 0.00 0.05 0.00 90 1011.5
20260904052059 17 268 6.4 16.1 0.00 0.05 0.00 90 1011.6
20260904051608 17 234 4.8 14.5 0.00 0.05 0.00 90 1011.6
20260904051057 17 230 6.4 14.5 0.00 0.05 0.00 90 1011.6
20260904050557 17 218 6.4 14.5 0.00 0.05 0.00 90 1011.6
20260904050108 17 220 4.8 12.9 0.00 0.05 0.00 90 1011.7
20260904045558 17 219 4.8 14.5 0.00 0.05 0.00 90 1011.6
20260904045059 17 225 4.8 14.5 0.00 0.05 0.00 90 1011.6
20260904044609 17 213 4.8 11.3 0.00 0.05 0.00 90 1011.7
20260904044101 17 220 4.8 14.5 0.00 0.05 0.00 90 1011.8
20260904043558 17 217 6.4 14.5 0.00 0.05 0.00 90 1011.9
20260904043100 17 219 4.8 11.3 0.00 0.05 0.00 89 1011.9
20260904042558 17 232 4.8 12.9 0.00 0.05 0.00 89 1012.0
20260904042057 17 232 4.8 12.9 0.00 0.05 0.00 89 1012.1
20260904041559 17 213 6.4 12.9 0.00 0.05 0.00 89 1012.2
20260904041057 17 225 6.4 16.1 0.00 0.05 0.00 89 1012.2
20260904040601 17 223 4.8 16.1 0.00 0.05 0.00 89 1012.2
20260904040110 17 223 4.8 12.9 0.00 0.05 0.00 89 1012.3
20260904035557 17 228 6.4 14.5 0.00 0.05 0.00 90 1012.5
20260904035058 17 203 8.0 14.5 0.00 0.05 0.00 90 1012.6
20260904034615 17 209 6.4 12.9 0.00 0.05 0.00 90 1012.6
20260904034057 17 222 4.8 12.9 0.00 0.05 0.00 90 1012.7
20260904033558 17 217 4.8 12.9 0.00 0.05 0.00 90 1012.8
20260904033100 16 225 4.8 14.5 0.00 0.05 0.00 90 1012.9
20260904032557 16 227 6.4 14.5 0.00 0.05 0.00 90 1013.0
20260904032057 16 221 4.8 12.9 0.00 0.05 0.00 90 1013.1
20260904031606 16 244 4.8 12.9 0.00 0.05 0.00 90 1013.1
20260904031057 16 221 6.4 12.9 0.00 0.05 0.00 90 1013.2
20260904030601 16 225 6.4 14.5 0.00 0.05 0.00 90 1013.2
20260904030106 16 225 4.8 14.5 0.00 0.05 0.00 91 1013.2
20260904025559 16 209 8.0 14.5 0.00 0.05 0.00 91 1013.3
20260904025057 16 221 4.8 12.9 0.00 0.05 0.00 90 1013.5
20260904024602 16 240 3.2 11.3 0.00 0.05 0.00 90 1013.5
20260904024058 16 215 4.8 11.3 0.00 0.05 0.00 90 1013.5
20260904023557 16 217 4.8 11.3 0.00 0.05 0.00 90 1013.6
20260904023107 16 194 3.2 11.3 0.00 0.05 0.00 90 1013.5
20260904022558 16 215 4.8 11.3 0.00 0.05 0.00 90 1013.7
20260904022058 16 214 4.8 8.0 0.00 0.05 0.00 90 1013.7
20260904021608 16 221 4.8 11.3 0.00 0.05 0.00 90 1013.9
20260904021057 16 202 4.8 11.3 0.00 0.05 0.00 90 1013.8
20260904020557 16 217 1.6 8.0 0.00 0.05 0.00 90 1013.9
20260904020107 16 214 3.2 8.0 0.00 0.05 0.00 89 1013.8
20260904015559 16 215 1.6 6.4 0.00 0.05 0.00 89 1013.9
20260904015057 16 216 3.2 8.0 0.00 0.05 0.00 89 1014.1
20260904014604 16 219 3.2 8.0 0.00 0.05 0.00 89 1014.0
20260904014057 16 218 1.6 8.0 0.00 0.05 0.00 89 1014.0
20260904013556 16 221 3.2 8.0 0.00 0.05 0.00 89 1014.0
20260904013105 16 225 1.6 9.7 0.00 0.05 0.00 89 1014.0
20260904012558 16 227 3.2 9.7 0.00 0.05 0.00 89 1014.1
20260904012059 16 228 3.2 11.3 0.00 0.05 0.00 89 1014.1
20260904011559 16 226 3.2 11.3 0.00 0.05 0.00 89 1014.1
20260904011056 16 241 4.8 12.9 0.00 0.05 0.00 89 1014.2
20260904010557 16 240 4.8 12.9 0.00 0.05 0.00 89 1014.4
20260904010106 16 252 4.8 11.3 0.00 0.05 0.00 89 1014.5
20260904005558 16 236 4.8 12.9 0.00 0.05 0.00 89 1014.5
20260904005100 16 240 4.8 12.9 0.00 0.05 0.00 89 1014.5
20260904004610 16 240 4.8 12.9 0.00 0.05 0.00 89 1014.5
20260904004057 16 234 3.2 8.0 0.00 0.05 0.00 89 1014.5
20260904003557 16 234 3.2 8.0 0.00 0.05 0.00 89 1014.6
20260904003100 16 232 3.2 9.7 0.00 0.05 0.00 89 1014.7
20260904002557 16 232 4.8 9.7 0.00 0.05 0.00 89 1014.7
20260904002100 16 227 4.8 9.7 0.00 0.05 0.00 89 1014.7
20260904001605 16 227 4.8 11.3 0.00 0.05 0.00 89 1014.7
20260904001057 16 226 4.8 11.3 0.00 0.05 0.00 89 1014.8
20260904000558 16 231 6.4 12.9 0.00 0.05 0.00 89 1014.9
20260904000136 16 223 4.8 14.5 0.00 0.05 0.00 89 1014.9
20260903235559 16 232 6.4 14.5 0.00 0.05 0.00 89 1015.0
20260903235101 16 236 4.8 11.3 0.00 0.05 0.00 89 1015.1
20260903234604 16 232 4.8 11.3 0.00 0.05 0.00 89 1015.1
20260903234057 16 242 4.8 11.3 0.00 0.05 0.00 89 1015.1
20260903233557 16 245 4.8 11.3 0.00 0.05 0.00 90 1015.1
20260903233112 16 244 4.8 9.7 0.00 0.05 0.00 90 1015.2
20260903232556 16 227 4.8 9.7 0.00 0.05 0.00 90 1015.0
20260903232057 16 227 3.2 12.9 0.00 0.05 0.00 90 1015.1
20260903231610 16 227 4.8 12.9 0.00 0.05 0.00 90 1015.1
20260903231057 17 220 4.8 12.9 0.00 0.05 0.00 91 1015.1
20260903230558 17 238 4.8 11.3 0.00 0.05 0.00 91 1015.2
20260903230114 17 242 4.8 11.3 0.00 0.05 0.00 91 1015.5
20260903225557 17 238 4.8 11.3 0.00 0.05 0.00 91 1015.4
20260903225057 17 236 3.2 8.0 0.00 0.05 0.00 91 1015.4
20260903224610 17 244 3.2 8.0 0.00 0.05 0.00 91 1015.3
20260903224057 17 250 3.2 4.8 0.00 0.05 0.00 92 1015.3
20260903223558 17 250 1.6 6.4 0.00 0.05 0.00 92 1015.4
20260903223059 17 250 3.2 6.4 0.00 0.05 0.00 91 1015.5
20260903222557 17 250 3.2 6.4 0.00 0.05 0.00 91 1015.5
20260903222059 17 251 3.2 6.4 0.00 0.05 0.00 92 1015.5
20260903221605 17 252 3.2 6.4 0.00 0.05 0.00 92 1015.5
20260903221056 17 254 0.0 3.2 0.00 0.05 0.00 92 1015.6
20260903220556 17 258 1.6 6.4 0.05 0.05 0.00 92 1015.7
20260903220121 17 0 1.6 6.4 0.05 0.05 0.00 91 1015.6
20260903215559 17 258 3.2 6.4 0.05 0.05 0.05 91 1015.6
20260903215058 17 267 3.2 11.3 0.05 0.05 0.05 90 1015.5
20260903214604 17 267 1.6 11.3 0.05 0.05 0.05 90 1015.3
20260903214057 17 267 4.8 11.3 0.05 0.05 0.05 90 1015.5
20260903213601 17 238 4.8 14.5 0.05 0.05 0.05 89 1015.5
20260903213101 17 263 6.4 14.5 0.05 0.05 0.05 89 1015.5
20260903212557 17 267 8.0 16.1 0.05 0.05 0.05 89 1015.6
20260903212058 18 269 8.0 24.1 0.05 0.05 0.05 88 1015.7
20260903211621 18 269 11.3 24.1 0.05 0.05 0.05 88 1015.7
20260903211100 18 264 4.8 14.5 0.05 0.05 0.05 88 1015.6
20260903210557 18 273 3.2 9.7 0.00 0.00 0.00 86 1015.6
20260903210113 18 273 3.2 11.3 0.00 0.00 0.00 86 1015.4
20260903205556 18 272 3.2 11.3 0.00 0.00 0.00 86 1015.3
20260903205056 18 275 3.2 11.3 0.00 0.00 0.00 85 1015.4
20260903204604 18 274 1.6 9.7 0.00 0.00 0.00 84 1015.3
20260903204057 18 286 3.2 12.9 0.00 0.00 0.00 84 1015.4
20260903203556 18 280 4.8 14.5 0.00 0.00 0.00 84 1015.4
20260903203100 18 252 4.8 16.1 0.00 0.00 0.00 83 1015.2
20260903202558 18 246 9.7 16.1 0.00 0.00 0.00 84 1015.4
20260903202057 18 238 8.0 17.7 0.00 0.00 0.00 84 1015.3
20260903201605 18 251 8.0 19.3 0.00 0.00 0.00 84 1015.3
20260903201057 18 259 8.0 19.3 0.00 0.00 0.00 84 1015.2
20260903200557 18 215 8.0 19.3 0.00 0.00 0.00 84 1015.2
20260903200101 18 232 9.7 17.7 0.00 0.00 0.00 84 1015.3
20260903195600 18 257 8.0 19.3 0.00 0.00 0.00 83 1015.2
20260903195056 18 225 6.4 19.3 0.00 0.00 0.00 84 1015.3
20260903194559 18 237 9.7 24.1 0.00 0.00 0.00 83 1015.4
20260903194057 18 234 11.3 24.1 0.00 0.00 0.00 83 1015.3
20260903193600 18 248 6.4 19.3 0.00 0.00 0.00 83 1015.5
20260903193103 18 250 8.0 19.3 0.00 0.00 0.00 83 1015.5
20260903192557 18 261 8.0 19.3 0.00 0.00 0.00 83 1015.6
20260903192057 18 268 6.4 19.3 0.00 0.00 0.00 82 1015.5
20260903191600 19 270 9.7 17.7 0.00 0.00 0.00 82 1015.4
20260903191057 19 244 9.7 17.7 0.00 0.00 0.00 81 1015.5
20260903190557 19 240 4.8 17.7 0.00 0.00 0.00 81 1015.5
20260903190059 19 238 9.7 22.5 0.00 0.00 0.00 81 1015.6
20260903185556 19 257 9.7 22.5 0.00 0.00 0.00 81 1015.5
20260903185056 19 247 9.7 19.3 0.00 0.00 0.00 81 1015.5
20260903184608 19 243 9.7 20.9 0.00 0.00 0.00 81 1015.5
20260903184056 19 250 8.0 20.9 0.00 0.00 0.00 81 1015.5
20260903183556 18 240 11.3 22.5 0.00 0.00 0.00 81 1015.4
20260903183106 18 230 9.7 22.5 0.00 0.00 0.00 81 1015.5
20260903182557 18 246 11.3 22.5 0.00 0.00 0.00 80 1015.3
20260903182056 18 219 9.7 22.5 0.00 0.00 0.00 80 1015.4
20260903181601 18 243 8.0 22.5 0.00 0.00 0.00 80 1015.3
20260903181057 18 246 11.3 22.5 0.00 0.00 0.00 80 1015.2
20260903180557 18 246 9.7 19.3 0.00 0.00 0.00 81 1015.1
20260903180112 18 242 8.0 19.3 0.00 0.00 0.00 80 1015.2
20260903175556 18 227 6.4 22.5 0.00 0.00 0.00 80 1015.2
20260903175056 19 242 8.0 22.5 0.00 0.00 0.00 80 1015.1
20260903174611 19 260 11.3 22.5 0.00 0.00 0.00 79 1015.0
20260903174059 19 232 8.0 22.5 0.00 0.00 0.00 79 1015.0
20260903173556 19 244 11.3 22.5 0.00 0.00 0.00 79 1015.1
20260903173120 19 242 9.7 20.9 0.00 0.00 0.00 79 1015.2
20260903172557 19 252 9.7 19.3 0.00 0.00 0.00 79 1015.2
20260903172056 19 220 9.7 22.5 0.00 0.00 0.00 78 1015.1
20260903171604 20 244 12.9 25.7 0.00 0.00 0.00 77 1015.1
20260903171058 20 222 12.9 25.7 0.00 0.00 0.00 77 1015.2
20260903170558 20 229 9.7 30.6 0.00 0.00 0.00 76 1015.1
20260903170112 20 252 16.1 30.6 0.00 0.00 0.00 76 1015.2
20260903165556 20 238 11.3 30.6 0.00 0.00 0.00 76 1015.1